Location: Fort Wayne
(41.1310°N, 85.1290°W)
Time: 10:49:57
(UTC-05:00)

Cosmos 1980 - Visible Passes

Search period start: 27 February 2017 00:00
Search period end: 09 March 2017 00:00
Orbit: 841 x 846 km, 71.0° (Epoch: 26 February)

Date Brightness Start Highest point End Pass type
(mag) Time Alt. Az. Time Alt. Az. Time Alt. Az.
27 Feb 3.8 20:05:15 10° NNW 20:10:49 55° ENE 20:12:50 36° ESE visible
27 Feb 5.8 21:50:22 10° NW 21:54:25 21° W 21:54:45 20° WSW visible
28 Feb 3.8 19:50:43 10° NNW 19:56:15 53° ENE 19:59:42 22° SE visible
28 Feb 5.8 21:35:43 10° NW 21:39:54 21° W 21:41:38 19° SW visible
01 Mar 3.9 19:36:11 10° NNW 19:41:41 50° ENE 19:46:48 12° SE visible
01 Mar 5.8 21:21:05 10° NW 21:25:22 22° W 21:28:45 13° SW visible
02 Mar 3.9 19:21:39 10° NNW 19:27:08 48° ENE 19:32:34 10° SE visible
02 Mar 5.8 21:06:27 10° NW 21:10:50 24° WSW 21:15:12 10° SSW visible
03 Mar 4.0 19:07:07 10° NNW 19:12:34 46° ENE 19:17:58 10° SE visible
03 Mar 5.8 20:51:50 10° NW 20:56:18 25° WSW 21:00:46 10° SSW visible
04 Mar 4.1 18:52:35 10° NNW 18:58:00 44° ENE 19:03:22 10° SE visible
04 Mar 5.7 20:37:13 10° NW 20:41:47 26° WSW 20:46:20 10° SSW visible
05 Mar 5.7 20:22:35 10° NW 20:27:15 27° WSW 20:31:53 10° SSW visible
06 Mar 5.7 20:07:59 10° NW 20:12:44 28° WSW 20:17:26 10° SSW visible
07 Mar 5.7 19:53:23 10° NW 19:58:11 29° WSW 20:02:59 10° SSW visible
08 Mar 5.7 19:38:47 10° NW 19:43:40 31° WSW 19:48:31 10° SSW visible
